[[{"header":{"parameterUnit":"m.s-1","parameterCategory":2,"la1":30.2991,"la2":30.254,"lo1":-89.0895,"lo2":-89.0444,"dy":0.0017,"dx":0.0017,"nx":28,"ny":28,"refTime":"2025-07-11T09:00:00:Z","depth":"0","parameterNumber":2,"parameterNumberName":"U-component_of_CURRENTS"},"data":[0,0,0,0,0,0,0,0,0,0,0,0,0,0,0,0,0,0,0,0,0,0,0,0,0,0,0,0,0,0,0,0,0,0,0,0,0,0,0,0,0,0,0,0,0,0,0,0,0,0,0,0,0,0,0,0,0,0,0.2646,0.2647,0,0.2716,0.2717,0.2718,0.273,0.2729,0.2728,0.2728,0.2819,0.2822,0.2825,0,0,0,0,0,0,0,0,0,0,0,0,0,0.2613,0.2613,0.2646,0.2647,0.2647,0.2716,0.2717,0.2718,0.273,0.2729,0.2728,0.2728,0.2818,0.2822,0.2826,0,0,0,0,0,0,0,0,0,0,0,0,0,0.2649,0.2613,0.2646,0.2662,0.2664,0.2716,0.2717,0.2718,0.273,0.2729,0.2728,0.2727,0.2817,0.2822,0.2826,0.2872,0,0,0.284,0.2842,0,0,0,0,0,0,0,0,0.2647,0.2651,0.2658,0.2661,0.2663,0.2713,0.2739,0.2771,0.273,0.2705,0.2728,0.2727,0.2786,0.2793,0.2808,0.2876,0.288,0.284,0.2843,0.2845,0.2846,0,0,0,0,0,0,0,0.2645,0.2648,0.2674,0.2659,0.2662,0.2697,0.27,0.2745,0.275,0.2707,0.2708,0.2716,0.2788,0.2804,0.2811,0.2882,0.284,0.2844,0.2847,0.2849,0.3053,0.3056,0,0,0,0,0,0,0.2632,0.2645,0.2671,0.2676,0.2653,0.2697,0.2701,0.2698,0.2749,0.2756,0.2717,0.2716,0.2797,0.2805,0.2814,0.294,0.2845,0.2849,0.2852,0.305,0.3054,0.3057,0,0,0,0,0,0,0.2631,0.2633,0.2669,0.2663,0.267,0.2698,0.2695,0.27,0.2715,0.2757,0.2763,0.2727,0.2796,0.2808,0.2873,0.294,0.2851,0.2855,0.3047,0.3051,0.3055,0.3147,0,0,0,0,0,0,0.2629,0.2632,0.2629,0.2661,0.2669,0.271,0.2696,0.2702,0.2722,0.2722,0.2768,0.2775,0.2797,0.2866,0.2878,0.2945,0.2859,0.3044,0.3049,0.3054,0.3141,0.3154,0.3165,0,0,0,0,0,0.2628,0.2631,0.2628,0.2632,0.2663,0.2711,0.272,0.2737,0.2723,0.2744,0.2778,0.2774,0.2907,0.2872,0.2885,0.2955,0.3041,0.3048,0.3054,0.3135,0.3151,0.3165,0,0,0,0,0,0,0.2621,0.2633,0.2631,0.2638,0.2675,0.2713,0.2733,0.2739,0.2781,0.2781,0.2806,0.2818,0.2909,0.2912,0.2873,0.3029,0.2975,0.2984,0.3033,0.3049,0.3061,0.3102,0.2862,0,0,0,0,0,0.2616,0.2616,0.2646,0.2655,0.2671,0.27,0.272,0.2735,0.2774,0.279,0.2825,0.2873,0.2946,0.2976,0.3033,0.3109,0.3114,0.3163,0.3175,0.3185,0.3229,0.3299,0.3321,0.3077,0.3077,0.3077,0,0,0.2616,0.2624,0.2624,0.2653,0.2679,0.2732,0.271,0.2748,0.2806,0.2796,0.2881,0.2919,0.2976,0.3075,0.3115,0.3084,0.3247,0.3193,0.3202,0.324,0.3308,0.3331,0.3353,0.3081,0.308,0.308,0,0,0.2634,0.2625,0.2641,0.2678,0.2719,0.275,0.276,0.2808,0.2841,0.2917,0.2946,0.303,0.3098,0.3185,0.3229,0.3343,0.3314,0.3342,0.3439,0.3505,0.3526,0.3545,0.3531,0.3548,0.3343,0.3343,0.3343,0,0.2637,0.2659,0.2659,0.2703,0.2745,0.2761,0.2819,0.2867,0.2934,0.2993,0.2953,0.3135,0.3171,0.3342,0.3384,0.3378,0.337,0.3374,0.3522,0.3541,0.3559,0.354,0.3558,0.3348,0.3348,0.3347,0.3347,0,0.2679,0.2709,0.2729,0.2786,0.2835,0.2885,0.2952,0.3008,0.3035,0.3098,0.3246,0.3303,0.3416,0.344,0.3449,0.3614,0.3549,0.353,0.3482,0.3589,0.3562,0.3578,0.3356,0.3354,0.3352,0.3351,0,0,0.2657,0.274,0.2748,0.2803,0.2884,0.2936,0.3038,0.3158,0.3246,0.3318,0.3443,0.3587,0.3615,0.3671,0.3698,0.3762,0.3857,0.3699,0.37,0.3681,0.3943,0.3673,0.3664,0.385,0.3855,0.3859,0.3854,0,0.2695,0.2792,0.2822,0.294,0.3007,0.3066,0.3169,0.3282,0.3361,0.3483,0.3586,0.3706,0.3703,0.3749,0.3833,0.3862,0.3914,0.3857,0.3848,0.3848,0.3594,0.3681,0.3499,0.3461,0.3869,0.3872,0.3874,0,0.2725,0.2796,0.2904,0.3041,0.3074,0.3146,0.3313,0.3408,0.3585,0.3648,0.3792,0.3844,0.4003,0.394,0.4079,0.4032,0.4015,0.401,0.4009,0.3751,0.3612,0.3433,0.3475,0.344,0.3899,0.3897,0.3895,0,0.2728,0.2853,0.2942,0.2989,0.3142,0.321,0.3297,0.3467,0.356,0.3752,0.3814,0.4004,0.4061,0.4129,0.4111,0.4106,0.4186,0.417,0.3917,0.3894,0.3739,0.3693,0.3751,0.4269,0.4269,0.4269,0.4269,0,0.2758,0.2835,0.2949,0.3008,0.3141,0.3234,0.3378,0.3496,0.3646,0.3761,0.3896,0.3984,0.4108,0.4147,0.4151,0.4054,0.4218,0.3958,0.3898,0.3753,0.3711,0.3667,0.3669,0.4269,0.4269,0.4269,0.4269,0,0.2751,0.2819,0.2938,0.3093,0.3144,0.3241,0.3395,0.35,0.363,0.3766,0.3816,0.3981,0.3998,0.4039,0.4105,0.4044,0.3875,0.3931,0.3696,0.3608,0.3291,0.3302,0.3079,0.3016,0.3671,0.3665,0.3659,0,0.2754,0.2811,0.2979,0.3051,0.3118,0.3252,0.3347,0.3495,0.3581,0.3744,0.3799,0.3848,0.3849,0.3807,0.3712,0.3619,0.3607,0.3393,0.3368,0.3261,0.3237,0.3092,0.3052,0.3196,0.3187,0.318,0.3174,0,0.2778,0.2826,0.2935,0.3074,0.3175,0.3266,0.3387,0.3422,0.3565,0.3617,0.364,0.3633,0.3564,0.3374,0.3232,0.3182,0.3203,0.3233,0.3251,0.2971,0.2702,0.2614,0.3167,0.3111,0.3117,0.3122,0.3125,0.3128,0.2792,0.2865,0.2992,0.3106,0.3196,0.322,0.321,0.3281,0.3303,0.3267,0.3384,0.3252,0.3157,0.2902,0.283,0.2605,0.2663,0.2548,0.2598,0.2481,0.2335,0.2671,0.2453,0.2456,0.2458,0.246,0.2461,0,0.2805,0.2892,0.3013,0.3103,0.3098,0.3168,0.319,0.3095,0.298,0.2986,0.2899,0.2698,0.2496,0.2419,0.2197,0.2066,0.2008,0.2028,0.1923,0.1948,0.2381,0.2278,0.1856,0.1856,0.1856,0.1856,0.1856,0.1856,0.2833,0.2929,0.2981,0.2967,0.2972,0.2868,0.28,0.2666,0.2601,0.2356,0.2199,0.2157,0.2164,0.1995,0.1827,0.1787,0.1733,0.1491,0.1615,0.2078,0.2135,0.219,0.2099,0.1646,0.1646,0.1075,0.1071,0.1069]},{"header":{"parameterUnit":"m.s-1","parameterCategory":2,"la1":30.2991,"la2":30.254,"lo1":-89.0895,"lo2":-89.0444,"dy":0.0017,"dx":0.0017,"nx":28,"ny":28,"refTime":"2025-07-11T09:00:00:Z","depth":"0","parameterNumber":3,"parameterNumberName":"V-component_of_CURRENTS"},"data":[0,0,0,0,0,0,0,0,0,0,0,0,0,0,0,0,0,0,0,0,0,0,0,0,0,0,0,0,0,0,0,0,0,0,0,0,0,0,0,0,0,0,0,0,0,0,0,0,0,0,0,0,0,0,0,0,0,0,0.0226,0.0226,0,0.0237,0.0237,0.0237,0.0232,0.0232,0.0232,0.0232,0.0256,0.0257,0.0258,0,0,0,0,0,0,0,0,0,0,0,0,0,0.0204,0.0204,0.0226,0.0226,0.0226,0.0237,0.0237,0.0237,0.0232,0.0232,0.0232,0.0231,0.0256,0.0257,0.0258,0,0,0,0,0,0,0,0,0,0,0,0,0,0.0214,0.0204,0.0226,0.0225,0.0225,0.0237,0.0237,0.0237,0.0232,0.0232,0.0232,0.0231,0.0256,0.0257,0.0258,0.0275,0,0,0.0263,0.0263,0,0,0,0,0,0,0,0,0.0214,0.0215,0.0225,0.0225,0.0225,0.0233,0.0238,0.0251,0.0233,0.023,0.0232,0.0231,0.025,0.0252,0.0255,0.0277,0.0278,0.0263,0.0264,0.0264,0.0264,0,0,0,0,0,0,0,0.0213,0.0214,0.0231,0.0225,0.0225,0.0225,0.0226,0.024,0.0243,0.023,0.023,0.0231,0.025,0.0253,0.0255,0.0278,0.0263,0.0264,0.0265,0.0265,0.0351,0.0353,0,0,0,0,0,0,0.0211,0.0214,0.023,0.0231,0.0218,0.0226,0.0227,0.0231,0.0242,0.0243,0.0231,0.023,0.0251,0.0254,0.0256,0.0309,0.0264,0.0265,0.0266,0.035,0.0352,0.0353,0,0,0,0,0,0,0.0211,0.0213,0.023,0.0222,0.0224,0.0226,0.0231,0.0231,0.0236,0.0243,0.0244,0.0235,0.0251,0.0254,0.0273,0.0309,0.0266,0.0267,0.0348,0.035,0.0352,0.0395,0,0,0,0,0,0,0.021,0.0213,0.0216,0.0222,0.0225,0.0247,0.0231,0.0232,0.0237,0.0236,0.0247,0.0248,0.0251,0.0271,0.0274,0.031,0.0268,0.0346,0.0349,0.0352,0.0392,0.0398,0.0404,0,0,0,0,0,0.021,0.0218,0.0216,0.0218,0.0228,0.0247,0.0249,0.0249,0.0237,0.0249,0.025,0.0248,0.0291,0.0273,0.0277,0.0314,0.0345,0.0348,0.0351,0.0389,0.0397,0.0404,0,0,0,0,0,0,0.0211,0.0218,0.0216,0.0226,0.0239,0.0247,0.0254,0.0251,0.0261,0.0258,0.0258,0.0261,0.0293,0.0296,0.0276,0.0348,0.0322,0.0326,0.0349,0.0357,0.0363,0.0417,0.027,0,0,0,0,0,0.0212,0.022,0.023,0.0239,0.0245,0.0249,0.0254,0.0257,0.0264,0.0268,0.0276,0.029,0.0311,0.0325,0.0341,0.0376,0.0387,0.0406,0.0412,0.0417,0.0465,0.0508,0.0522,0.0364,0.0364,0.0364,0,0,0.0214,0.022,0.0223,0.024,0.0246,0.0274,0.0252,0.0266,0.0292,0.027,0.0305,0.0307,0.0323,0.0363,0.0379,0.037,0.0457,0.0421,0.0425,0.0472,0.0513,0.0528,0.0542,0.0366,0.0366,0.0365,0,0,0.0232,0.0229,0.0246,0.0263,0.0278,0.0287,0.0293,0.0306,0.0315,0.0341,0.0339,0.0373,0.0388,0.0427,0.0442,0.0497,0.0483,0.0488,0.0571,0.061,0.0624,0.0637,0.062,0.0632,0.0497,0.0497,0.0497,0,0.0235,0.0261,0.0255,0.0283,0.0306,0.0297,0.0333,0.0344,0.0364,0.0402,0.0359,0.0441,0.0433,0.0526,0.0536,0.0516,0.0511,0.0535,0.0619,0.0632,0.0644,0.0626,0.0637,0.0499,0.0499,0.0499,0.0498,0,0.0272,0.0297,0.0311,0.0347,0.0368,0.0397,0.0415,0.0444,0.0444,0.0474,0.0549,0.0545,0.0613,0.0599,0.0578,0.0676,0.0631,0.0613,0.06,0.0663,0.0638,0.0649,0.0503,0.0502,0.0501,0.0501,0,0,0.0277,0.0328,0.0335,0.0375,0.0407,0.0438,0.0486,0.0556,0.0635,0.0633,0.0736,0.0753,0.0771,0.0793,0.0778,0.0805,0.0843,0.0746,0.0747,0.073,0.089,0.0802,0.0805,0.083,0.0834,0.0837,0.0819,0,0.0314,0.0382,0.0397,0.0477,0.052,0.0544,0.0607,0.0669,0.072,0.0815,0.0831,0.091,0.0838,0.0874,0.0894,0.0871,0.0884,0.0848,0.0834,0.0834,0.075,0.0821,0.0825,0.0807,0.0829,0.0831,0.0833,0,0.0354,0.0399,0.0476,0.0575,0.0598,0.0645,0.0778,0.0835,0.0958,0.1003,0.1089,0.1103,0.1163,0.1074,0.1088,0.1062,0.0995,0.0951,0.0949,0.0879,0.0772,0.076,0.0827,0.0829,0.085,0.0849,0.0847,0,0.0382,0.0463,0.0531,0.0559,0.066,0.0714,0.0774,0.0903,0.1004,0.1136,0.1227,0.1288,0.1324,0.1281,0.1169,0.1141,0.1149,0.1099,0.0958,0.0947,0.0962,0.0948,0.1044,0.112,0.112,0.112,0.112,0,0.0427,0.0489,0.0551,0.0597,0.0713,0.0759,0.092,0.0997,0.1153,0.1313,0.1331,0.1445,0.1378,0.1361,0.1243,0.1132,0.1206,0.1007,0.0965,0.0967,0.0954,0.0963,0.0941,0.112,0.112,0.112,0.112,0,0.0463,0.0495,0.0593,0.0694,0.0731,0.0818,0.0994,0.114,0.1248,0.1452,0.1496,0.1578,0.1541,0.1432,0.135,0.1227,0.1109,0.1054,0.1025,0.0981,0.0848,0.0826,0.0861,0.0889,0.093,0.0928,0.0926,0,0.0489,0.0537,0.0657,0.0735,0.0785,0.0917,0.1042,0.1177,0.1338,0.1536,0.1646,0.166,0.1689,0.1509,0.1292,0.1083,0.1053,0.0951,0.0917,0.088,0.0826,0.0809,0.0831,0.0928,0.0927,0.0926,0.0925,0,0.0553,0.0591,0.0676,0.0827,0.095,0.1104,0.1273,0.14,0.1581,0.1717,0.1864,0.1882,0.1706,0.1511,0.121,0.1062,0.0971,0.0918,0.0933,0.0895,0.084,0.0832,0.0854,0.0915,0.0916,0.0916,0.0917,0.0917,0.0606,0.068,0.0795,0.0942,0.109,0.1276,0.1401,0.1575,0.177,0.195,0.1968,0.1979,0.174,0.1326,0.1144,0.0857,0.0866,0.0792,0.078,0.0775,0.0793,0.0756,0.0731,0.0731,0.0731,0.0731,0.0731,0,0.0678,0.0771,0.0914,0.1091,0.1259,0.132,0.1561,0.1677,0.1859,0.1983,0.2049,0.1928,0.1632,0.1342,0.0947,0.0787,0.0762,0.0716,0.0753,0.0793,0.0819,0.0811,0.074,0.074,0.074,0.074,0.074,0.074,0.0726,0.0866,0.0941,0.1201,0.1327,0.1528,0.1649,0.1795,0.1912,0.2006,0.2003,0.1996,0.1849,0.1208,0.0875,0.0788,0.0782,0.0675,0.0707,0.0763,0.0772,0.078,0.0773,0.0696,0.0696,0.0733,0.0733,0.0733]}],[{"header":{"parameterUnit":"m.s-1","parameterCategory":2,"la1":30.2991,"la2":30.254,"lo1":-89.0895,"lo2":-89.0444,"dy":0.0017,"dx":0.0017,"nx":28,"ny":28,"refTime":"2025-07-11T09:00:00:Z","depth":"2","parameterNumber":2,"parameterNumberName":"U-component_of_CURRENTS"},"data":[0,0,0,0,0,0,0,0,0,0,0,0,0,0,0,0,0,0,0,0,0,0,0,0,0,0,0,0,0,0,0,0,0,0,0,0,0,0,0,0,0,0,0,0,0,0,0,0,0,0,0,0,0,0,0,0,0,0,0.2329,0.233,0,0.2384,0.2384,0.2385,0.2381,0.2381,0.238,0.238,0.2384,0.2385,0.2386,0,0,0,0,0,0,0,0,0,0,0,0,0,0.2321,0.2321,0.2329,0.233,0.2331,0.2384,0.2384,0.2385,0.2382,0.2381,0.238,0.2379,0.2384,0.2385,0.2386,0,0,0,0,0,0,0,0,0,0,0,0,0,0.2343,0.232,0.2329,0.2337,0.2338,0.2383,0.2384,0.2385,0.2382,0.2381,0.238,0.2379,0.2384,0.2385,0.2386,0.2413,0,0,0.2389,0.239,0,0,0,0,0,0,0,0,0.2342,0.2343,0.2335,0.2336,0.2338,0.2376,0.2383,0.2392,0.2382,0.2364,0.238,0.2378,0.2379,0.238,0.2391,0.2413,0.2413,0.239,0.239,0.2391,0.2391,0,0,0,0,0,0,0,0.234,0.2342,0.2349,0.2336,0.2338,0.2371,0.2372,0.2386,0.2374,0.2365,0.2365,0.2374,0.2379,0.239,0.2391,0.2413,0.2389,0.239,0.2391,0.2392,0.2552,0.2555,0,0,0,0,0,0,0.2332,0.234,0.2347,0.2351,0.2339,0.2372,0.2373,0.2364,0.2375,0.2377,0.2375,0.2374,0.2389,0.239,0.2391,0.2529,0.2391,0.2392,0.2392,0.2548,0.2553,0.2556,0,0,0,0,0,0,0.2332,0.2332,0.2345,0.2349,0.2353,0.2373,0.2362,0.2365,0.2386,0.2383,0.2383,0.2394,0.2388,0.239,0.2427,0.2524,0.2392,0.2393,0.2544,0.255,0.2554,0.2736,0,0,0,0,0,0,0.2331,0.2331,0.2333,0.2348,0.2353,0.2372,0.2364,0.2367,0.2393,0.2392,0.24,0.2398,0.2387,0.2425,0.2428,0.2524,0.2394,0.2539,0.2546,0.2553,0.2725,0.2747,0.2765,0,0,0,0,0,0.233,0.2334,0.2332,0.2335,0.235,0.2373,0.2379,0.2389,0.2395,0.2405,0.2426,0.2399,0.2471,0.2429,0.2431,0.2529,0.2536,0.2544,0.2552,0.2716,0.2742,0.2764,0,0,0,0,0,0,0.2336,0.2335,0.2333,0.2337,0.2354,0.2373,0.2392,0.2402,0.2428,0.2435,0.2429,0.2431,0.2498,0.2484,0.2438,0.2595,0.2506,0.2515,0.263,0.2654,0.2674,0.2658,0.2395,0,0,0,0,0,0.2338,0.2335,0.2345,0.2351,0.2361,0.2381,0.2398,0.2406,0.2429,0.2439,0.2451,0.2482,0.2535,0.2566,0.2578,0.2664,0.2631,0.2732,0.2752,0.2769,0.276,0.2814,0.2838,0.2583,0.2583,0.2583,0,0,0.2341,0.2343,0.2342,0.2353,0.2369,0.2401,0.2388,0.2417,0.2464,0.2437,0.2504,0.2531,0.2563,0.2658,0.2691,0.2663,0.2826,0.278,0.2794,0.2774,0.2825,0.2849,0.2871,0.2588,0.2587,0.2586,0,0,0.2356,0.235,0.2359,0.2381,0.2409,0.2424,0.2435,0.2466,0.2498,0.2558,0.2579,0.2654,0.2707,0.2775,0.2815,0.2948,0.2909,0.2979,0.3097,0.3152,0.3173,0.3191,0.3182,0.3198,0.3016,0.3016,0.3016,0,0.2367,0.2374,0.237,0.24,0.2424,0.2438,0.2471,0.2517,0.2563,0.2606,0.2588,0.2754,0.2764,0.2942,0.2999,0.2995,0.2999,0.3008,0.3178,0.3195,0.321,0.3197,0.3212,0.3026,0.3025,0.3024,0.3023,0,0.2393,0.2413,0.2427,0.2461,0.2486,0.2517,0.2568,0.2612,0.2649,0.2701,0.2847,0.291,0.3022,0.3065,0.3072,0.3242,0.3199,0.3177,0.3115,0.3247,0.3224,0.3236,0.304,0.3036,0.3033,0.3031,0,0,0.238,0.2432,0.2441,0.2473,0.2521,0.2547,0.2626,0.2703,0.2792,0.2873,0.3015,0.3142,0.3212,0.3262,0.3338,0.3397,0.3506,0.3356,0.3355,0.3342,0.3604,0.3342,0.3329,0.3537,0.3541,0.3543,0.3544,0,0.2404,0.2459,0.2481,0.2553,0.2584,0.2627,0.2706,0.2786,0.287,0.3012,0.3142,0.3272,0.3294,0.3385,0.348,0.3475,0.3548,0.3505,0.348,0.3478,0.3226,0.3338,0.3108,0.307,0.3556,0.3558,0.3559,0,0.2425,0.2457,0.2519,0.2602,0.2623,0.2682,0.2804,0.288,0.3063,0.3144,0.3335,0.3419,0.3586,0.3564,0.368,0.3662,0.3662,0.3641,0.3641,0.3332,0.3239,0.3018,0.3073,0.3578,0.3577,0.3575,0.3574,0,0.2412,0.249,0.2537,0.2567,0.2663,0.2719,0.2778,0.2924,0.3012,0.3241,0.3325,0.3552,0.3674,0.3714,0.3689,0.3705,0.3743,0.375,0.3524,0.3504,0.326,0.321,0.3834,0.3834,0.3834,0.3834,0.3834,0,0.2427,0.2466,0.2547,0.2583,0.2689,0.2733,0.2869,0.2978,0.3136,0.3244,0.3422,0.354,0.3717,0.3761,0.373,0.363,0.3784,0.3537,0.3496,0.3312,0.3269,0.3664,0.3644,0.3834,0.3834,0.3834,0.3834,0,0.2408,0.2454,0.2534,0.2642,0.2695,0.2773,0.2908,0.3015,0.3125,0.3279,0.3336,0.356,0.3566,0.3641,0.3685,0.3643,0.3557,0.3492,0.3221,0.3145,0.3283,0.3274,0.326,0.3251,0.3244,0.3237,0.3232,0,0.2405,0.2439,0.2585,0.2645,0.2706,0.2813,0.2914,0.3047,0.3115,0.3231,0.3298,0.3383,0.3402,0.3359,0.3287,0.3175,0.3338,0.2907,0.2879,0.3267,0.3231,0.3233,0.3233,0.2652,0.2642,0.2634,0.2628,0,0.2408,0.2464,0.2529,0.2647,0.2773,0.2861,0.296,0.2997,0.3096,0.3134,0.3114,0.3096,0.3099,0.2896,0.279,0.2702,0.2892,0.2732,0.3261,0.2791,0.2682,0.2649,0.2673,0.2557,0.2564,0.257,0.2573,0.2576,0.242,0.2445,0.2528,0.2673,0.277,0.2809,0.2792,0.2837,0.2836,0.2764,0.2847,0.2703,0.2727,0.24,0.2252,0.2166,0.2379,0.2306,0.2338,0.2376,0.2264,0.2143,0.1895,0.1898,0.1901,0.1903,0.1905,0,0.2425,0.2453,0.2536,0.2625,0.2632,0.2738,0.2752,0.2642,0.2519,0.2516,0.2402,0.2097,0.1909,0.1906,0.1657,0.1594,0.1677,0.1527,0.1657,0.1725,0.1786,0.1652,0.1117,0.1115,0.1112,0.111,0,0,0.2409,0.2429,0.2475,0.2469,0.2498,0.2433,0.2375,0.2231,0.2141,0.193,0.1807,0.1864,0.187,0.1502,0.1413,0.1231,0.1492,0.1174,0.1808,0.2034,0.2094,0.2226,0.209,0,0,0,0,0]},{"header":{"parameterUnit":"m.s-1","parameterCategory":2,"la1":30.2991,"la2":30.254,"lo1":-89.0895,"lo2":-89.0444,"dy":0.0017,"dx":0.0017,"nx":28,"ny":28,"refTime":"2025-07-11T09:00:00:Z","depth":"2","parameterNumber":3,"parameterNumberName":"V-component_of_CURRENTS"},"data":[0,0,0,0,0,0,0,0,0,0,0,0,0,0,0,0,0,0,0,0,0,0,0,0,0,0,0,0,0,0,0,0,0,0,0,0,0,0,0,0,0,0,0,0,0,0,0,0,0,0,0,0,0,0,0,0,0,0,0.0122,0.0122,0,0.013,0.013,0.013,0.0124,0.0123,0.0123,0.0123,0.013,0.013,0.013,0,0,0,0,0,0,0,0,0,0,0,0,0,0.0106,0.0107,0.0122,0.0122,0.0122,0.013,0.013,0.013,0.0124,0.0123,0.0123,0.0123,0.0129,0.013,0.013,0,0,0,0,0,0,0,0,0,0,0,0,0,0.0114,0.0107,0.0122,0.012,0.012,0.013,0.013,0.013,0.0124,0.0123,0.0123,0.0122,0.0129,0.013,0.0131,0.0143,0,0,0.0133,0.0133,0,0,0,0,0,0,0,0,0.0113,0.0114,0.012,0.012,0.012,0.0125,0.0127,0.0134,0.0124,0.0122,0.0123,0.0122,0.0128,0.0129,0.0131,0.0143,0.0143,0.0133,0.0133,0.0133,0.0133,0,0,0,0,0,0,0,0.0113,0.0114,0.0125,0.012,0.012,0.012,0.0121,0.0128,0.0127,0.0122,0.0122,0.0123,0.0128,0.0131,0.0132,0.0143,0.0133,0.0133,0.0134,0.0134,0.019,0.0191,0,0,0,0,0,0,0.0112,0.0113,0.0125,0.0125,0.0115,0.0121,0.0121,0.0124,0.0127,0.0128,0.0123,0.0123,0.013,0.0131,0.0132,0.0178,0.0133,0.0134,0.0134,0.0188,0.019,0.0191,0,0,0,0,0,0,0.0112,0.0113,0.0125,0.0119,0.0121,0.0121,0.0124,0.0124,0.013,0.0128,0.0128,0.0129,0.013,0.0131,0.0143,0.0177,0.0134,0.0135,0.0187,0.0189,0.019,0.0249,0,0,0,0,0,0,0.0111,0.0113,0.0116,0.0119,0.0121,0.0139,0.0125,0.0125,0.0131,0.013,0.0133,0.0133,0.0129,0.0143,0.0144,0.0177,0.0135,0.0186,0.0188,0.019,0.0246,0.0253,0.0259,0,0,0,0,0,0.0111,0.0118,0.0116,0.0118,0.0125,0.0139,0.0141,0.0139,0.0131,0.0141,0.014,0.0133,0.0157,0.0144,0.0145,0.0179,0.0185,0.0187,0.019,0.0243,0.0252,0.0259,0,0,0,0,0,0,0.0113,0.0118,0.0116,0.0125,0.0135,0.0139,0.0145,0.0144,0.015,0.0148,0.0143,0.0143,0.0165,0.0163,0.0148,0.0201,0.0172,0.0175,0.0212,0.022,0.0226,0.0265,0.0136,0,0,0,0,0,0.0115,0.0122,0.0129,0.0137,0.0142,0.0144,0.0149,0.015,0.0155,0.0157,0.016,0.0166,0.0177,0.0189,0.0192,0.0223,0.0223,0.0247,0.0253,0.0259,0.0292,0.0324,0.0336,0.0199,0.0199,0.0199,0,0,0.0118,0.0122,0.0125,0.0138,0.0143,0.0165,0.0147,0.0159,0.018,0.0157,0.0185,0.0182,0.0186,0.0217,0.0229,0.0222,0.0289,0.0262,0.0266,0.0297,0.0328,0.0341,0.0353,0.0201,0.02,0.02,0,0,0.0134,0.0131,0.0146,0.0161,0.0174,0.0178,0.0184,0.0194,0.0201,0.0222,0.0215,0.0239,0.0246,0.0273,0.0283,0.0329,0.0312,0.0322,0.0399,0.0429,0.0441,0.0452,0.0432,0.044,0.0336,0.0336,0.0336,0,0.0138,0.0161,0.0154,0.018,0.0199,0.0188,0.0219,0.0226,0.0241,0.0265,0.0236,0.0295,0.0282,0.0358,0.0366,0.0347,0.0342,0.0368,0.0439,0.045,0.046,0.0437,0.0446,0.0339,0.0339,0.0339,0.0338,0,0.0171,0.0194,0.0206,0.0236,0.0253,0.0278,0.029,0.031,0.031,0.0326,0.0386,0.0386,0.0441,0.0426,0.0405,0.0486,0.0448,0.0433,0.0422,0.0478,0.0449,0.0457,0.0344,0.0343,0.0342,0.0341,0,0,0.0175,0.0221,0.0228,0.0264,0.0289,0.0314,0.0349,0.0395,0.0458,0.0456,0.0549,0.0549,0.0573,0.0588,0.0584,0.0601,0.0632,0.0552,0.0552,0.0536,0.0666,0.0589,0.0589,0.063,0.0633,0.0635,0.0603,0,0.0209,0.027,0.0283,0.0353,0.039,0.0405,0.0455,0.0494,0.0529,0.0613,0.0626,0.0691,0.063,0.0672,0.069,0.065,0.0663,0.064,0.0613,0.0612,0.0541,0.0601,0.0594,0.0563,0.0611,0.0612,0.0613,0,0.0245,0.0285,0.0354,0.044,0.046,0.0499,0.0603,0.0648,0.0741,0.0779,0.0858,0.0867,0.0913,0.0851,0.0839,0.0826,0.0767,0.0717,0.0714,0.064,0.0553,0.0523,0.0576,0.0626,0.0625,0.0624,0.0623,0,0.027,0.0343,0.0403,0.0429,0.0513,0.0559,0.0607,0.07,0.0787,0.0897,0.0976,0.1026,0.1079,0.1017,0.0899,0.088,0.0862,0.0822,0.07,0.069,0.0682,0.0668,0.0836,0.0836,0.0836,0.0836,0.0836,0,0.0311,0.0365,0.0422,0.0464,0.0567,0.0603,0.0743,0.0802,0.0941,0.1072,0.1078,0.118,0.1127,0.1101,0.0967,0.0852,0.0916,0.0736,0.0699,0.0694,0.0683,0.0743,0.0733,0.0835,0.0835,0.0836,0.0836,0,0.034,0.0371,0.0458,0.0548,0.0584,0.0661,0.0821,0.0949,0.1033,0.1214,0.1249,0.1321,0.126,0.1157,0.106,0.0952,0.0821,0.0763,0.073,0.0691,0.0609,0.0602,0.0644,0.0641,0.0639,0.0637,0.0636,0,0.0363,0.0406,0.0519,0.0589,0.0636,0.0755,0.0874,0.0994,0.1135,0.1281,0.1383,0.1382,0.1386,0.1195,0.1001,0.0782,0.0775,0.0646,0.0619,0.0641,0.0601,0.0597,0.0593,0.0611,0.061,0.0608,0.0607,0,0.0418,0.0455,0.0529,0.0668,0.079,0.0936,0.1091,0.121,0.1362,0.1459,0.1553,0.1535,0.1384,0.1175,0.0903,0.0748,0.0674,0.0611,0.0692,0.065,0.0605,0.0566,0.0565,0.0596,0.0597,0.0598,0.0598,0.0599,0.0466,0.0524,0.0628,0.0773,0.0915,0.1094,0.121,0.1368,0.1527,0.1651,0.1633,0.1574,0.1402,0.1012,0.0777,0.0553,0.0583,0.0499,0.0507,0.0514,0.0506,0.0459,0.0418,0.0418,0.0418,0.0418,0.0418,0,0.0534,0.0608,0.0735,0.0905,0.1067,0.1132,0.1356,0.1454,0.16,0.1669,0.168,0.1425,0.1196,0.0966,0.0624,0.0428,0.0434,0.0356,0.0418,0.043,0.0441,0.0431,0.0322,0.0321,0.032,0.032,0,0,0.057,0.0686,0.0756,0.1006,0.1131,0.1331,0.1444,0.1555,0.1629,0.1633,0.1576,0.1517,0.1252,0.098,0.0721,0.0523,0.0522,0.0476,0.0575,0.0692,0.0705,0.0542,0.0542,0,0,0,0,0]}],[{"header":{"parameterUnit":"m.s-1","parameterCategory":2,"la1":30.2991,"la2":30.254,"lo1":-89.0895,"lo2":-89.0444,"dy":0.0017,"dx":0.0017,"nx":28,"ny":28,"refTime":"2025-07-11T09:00:00:Z","depth":"4","parameterNumber":2,"parameterNumberName":"U-component_of_CURRENTS"},"data":[0,0,0,0,0,0,0,0,0,0,0,0,0,0,0,0,0,0,0,0,0,0,0,0,0,0,0,0,0,0,0,0,0,0,0,0,0,0,0,0,0,0,0,0,0,0,0,0,0,0,0,0,0,0,0,0,0,0,0.1328,0.1328,0,0.1282,0.1281,0.1281,0.1294,0.1296,0.1297,0.1298,0.1303,0.1302,0.1301,0,0,0,0,0,0,0,0,0,0,0,0,0,0.1353,0.1353,0.1328,0.1328,0.1328,0.1282,0.1281,0.128,0.1294,0.1296,0.1297,0.1299,0.1304,0.1302,0.1301,0,0,0,0,0,0,0,0,0,0,0,0,0,0.1325,0.1353,0.1328,0.1332,0.1333,0.1283,0.1281,0.128,0.1294,0.1296,0.1298,0.13,0.1304,0.1302,0.1301,0.125,0,0,0.1296,0.1295,0,0,0,0,0,0,0,0,0.1326,0.1323,0.1332,0.1332,0.1332,0.13,0.1292,0.1274,0.1293,0.1304,0.1298,0.1301,0.1308,0.1306,0.1286,0.125,0.1251,0.1295,0.1294,0.1294,0.1293,0,0,0,0,0,0,0,0.1328,0.1325,0.1306,0.1332,0.1332,0.1311,0.131,0.1288,0.1293,0.1303,0.1305,0.1306,0.1308,0.1288,0.1287,0.1251,0.1296,0.1294,0.1293,0.1292,0.1262,0.1262,0,0,0,0,0,0,0.1344,0.1327,0.1307,0.1305,0.1339,0.131,0.1308,0.1305,0.1292,0.1293,0.1304,0.1307,0.129,0.1289,0.1287,0.1295,0.1294,0.1292,0.1291,0.1262,0.1262,0.1262,0,0,0,0,0,0,0.1344,0.1342,0.1309,0.1319,0.1314,0.1308,0.1304,0.1303,0.1318,0.1293,0.1295,0.1326,0.1291,0.129,0.1281,0.1293,0.1291,0.129,0.1262,0.1262,0.1262,0.1268,0,0,0,0,0,0,0.1345,0.1343,0.1358,0.1319,0.1314,0.1291,0.1303,0.1301,0.1315,0.1319,0.1311,0.1311,0.1293,0.1283,0.1279,0.1291,0.1289,0.1261,0.1262,0.1262,0.1267,0.1268,0.1269,0,0,0,0,0,0.1346,0.1349,0.1359,0.1358,0.1331,0.1292,0.1286,0.1286,0.1315,0.131,0.1307,0.1314,0.1284,0.1281,0.1276,0.1288,0.1261,0.1262,0.1262,0.1267,0.1268,0.1269,0,0,0,0,0,0,0.1368,0.135,0.136,0.136,0.1338,0.1296,0.1297,0.1303,0.1295,0.131,0.13,0.1298,0.1316,0.1291,0.1288,0.1283,0.128,0.1279,0.1285,0.1286,0.1287,0.1341,0.1287,0,0,0,0,0,0.138,0.1382,0.1356,0.1359,0.135,0.1333,0.1326,0.1322,0.1305,0.1306,0.1306,0.1304,0.1305,0.1288,0.1292,0.1259,0.1304,0.1269,0.127,0.1271,0.1313,0.1421,0.1438,0.1264,0.1264,0.1264,0,0,0.139,0.1383,0.1385,0.1365,0.1349,0.1329,0.1333,0.1321,0.1313,0.1306,0.131,0.1325,0.1307,0.1293,0.1296,0.1271,0.1326,0.1271,0.1272,0.1315,0.1424,0.1442,0.1457,0.1264,0.1264,0.1264,0,0,0.1384,0.1402,0.1391,0.1376,0.136,0.1345,0.1353,0.1329,0.1329,0.1324,0.1334,0.1359,0.1334,0.1326,0.1317,0.1323,0.1356,0.1316,0.1328,0.1431,0.1448,0.1463,0.1472,0.1489,0.1282,0.1282,0.1282,0,0.1403,0.1381,0.138,0.1362,0.135,0.1361,0.1334,0.133,0.1312,0.1327,0.1337,0.1372,0.136,0.1355,0.1356,0.1331,0.1369,0.132,0.1437,0.1454,0.147,0.1476,0.1494,0.1282,0.1282,0.1282,0.1282,0,0.1373,0.1367,0.1358,0.1344,0.133,0.1312,0.13,0.1323,0.1349,0.1356,0.1399,0.1389,0.1416,0.1402,0.1378,0.1455,0.1437,0.1455,0.1441,0.1488,0.1489,0.1508,0.1282,0.1282,0.1282,0.1282,0,0,0.138,0.1344,0.1346,0.1331,0.1318,0.13,0.1312,0.1317,0.1367,0.1378,0.1433,0.1433,0.1473,0.1469,0.1444,0.1508,0.1617,0.1522,0.1527,0.1542,0.1795,0.1608,0.161,0.167,0.1675,0.1679,0.1725,0,0.1356,0.1305,0.1302,0.1277,0.124,0.1274,0.1291,0.1316,0.1359,0.1427,0.145,0.1514,0.1473,0.1512,0.1563,0.1637,0.168,0.1599,0.1741,0.1743,0.1584,0.1632,0.1695,0.1739,0.1744,0.1747,0.1749,0,0.1316,0.1285,0.1239,0.1234,0.1231,0.1259,0.1319,0.1327,0.1426,0.1476,0.1543,0.159,0.1656,0.1655,0.1776,0.1731,0.1777,0.1819,0.1822,0.1679,0.1596,0.1701,0.1784,0.1781,0.1778,0.1776,0.1774,0,0.1269,0.1245,0.1209,0.1202,0.1209,0.1255,0.1291,0.1372,0.1413,0.1543,0.1629,0.1694,0.1763,0.1858,0.1887,0.1882,0.2031,0.2029,0.1884,0.1867,0.202,0.2005,0.2165,0.2165,0.2165,0.2165,0.2164,0,0.1216,0.1195,0.1216,0.1195,0.1204,0.1246,0.1312,0.1368,0.1509,0.1574,0.1663,0.172,0.1847,0.1908,0.194,0.193,0.2065,0.1913,0.1895,0.2004,0.1987,0.2029,0.2012,0.2166,0.2166,0.2165,0.2165,0,0.1158,0.1157,0.1112,0.1148,0.1166,0.1184,0.1304,0.1374,0.1525,0.1626,0.169,0.1803,0.1881,0.1929,0.2062,0.1975,0.2012,0.1974,0.2026,0.2006,0.1762,0.1746,0.1852,0.1847,0.1842,0.1838,0.1835,0,0.1113,0.1085,0.1067,0.1047,0.1079,0.1137,0.1183,0.1343,0.1424,0.1633,0.1671,0.1813,0.1855,0.185,0.1917,0.1937,0.1918,0.1887,0.1891,0.1773,0.1745,0.1736,0.1725,0.1827,0.1826,0.1825,0.1823,0,0.1021,0.1032,0.1,0.0965,0.0996,0.1011,0.1116,0.1187,0.1383,0.1538,0.1638,0.1689,0.1738,0.1766,0.177,0.1784,0.1891,0.1838,0.1849,0.1853,0.1743,0.1718,0.1714,0.1807,0.1809,0.1811,0.1812,0,0.0973,0.0912,0.0885,0.085,0.0884,0.0905,0.096,0.1087,0.1196,0.1473,0.1477,0.161,0.1722,0.1684,0.1688,0.168,0.1682,0.1625,0.1647,0.1666,0.1579,0.1411,0.138,0,0,0,0,0,0.0909,0.0812,0.0766,0.0727,0.0799,0.0824,0.0922,0.1015,0.1223,0.1262,0.1396,0.1444,0.1489,0.1522,0.1484,0.1587,0.1664,0.1528,0.1604,0.1716,0.1735,0.1647,0,0,0,0,0,0,0.0837,0.0782,0.0712,0.068,0.0683,0.0751,0.0814,0.0943,0.0979,0.1185,0.1207,0.1349,0.1393,0.1522,0.1463,0.1475,0.1485,0.161,0.1605,0.1705,0.1723,0.1738,0.1654,0,0,0,0,0]},{"header":{"parameterUnit":"m.s-1","parameterCategory":2,"la1":30.2991,"la2":30.254,"lo1":-89.0895,"lo2":-89.0444,"dy":0.0017,"dx":0.0017,"nx":28,"ny":28,"refTime":"2025-07-11T09:00:00:Z","depth":"4","parameterNumber":3,"parameterNumberName":"V-component_of_CURRENTS"},"data":[0,0,0,0,0,0,0,0,0,0,0,0,0,0,0,0,0,0,0,0,0,0,0,0,0,0,0,0,0,0,0,0,0,0,0,0,0,0,0,0,0,0,0,0,0,0,0,0,0,0,0,0,0,0,0,0,0,0,0.0062,0.0062,0,0.0077,0.0078,0.0078,0.0084,0.0084,0.0084,0.0084,0.0105,0.0106,0.0107,0,0,0,0,0,0,0,0,0,0,0,0,0,0.005,0.005,0.0062,0.0062,0.0062,0.0077,0.0078,0.0078,0.0084,0.0084,0.0084,0.0084,0.0105,0.0106,0.0107,0,0,0,0,0,0,0,0,0,0,0,0,0,0.006,0.005,0.0062,0.0066,0.0066,0.0077,0.0078,0.0078,0.0084,0.0084,0.0084,0.0084,0.0105,0.0106,0.0107,0.0119,0,0,0.011,0.0111,0,0,0,0,0,0,0,0,0.006,0.0061,0.0065,0.0066,0.0066,0.0077,0.0081,0.0092,0.0084,0.0079,0.0084,0.0083,0.0096,0.0098,0.0103,0.012,0.0121,0.0111,0.0111,0.0112,0.0112,0,0,0,0,0,0,0,0.0059,0.006,0.007,0.0065,0.0066,0.0071,0.0072,0.0083,0.009,0.0079,0.008,0.0079,0.0096,0.0102,0.0104,0.0121,0.0111,0.0112,0.0112,0.0113,0.0148,0.0149,0,0,0,0,0,0,0.0054,0.006,0.0069,0.007,0.0061,0.0071,0.0073,0.0075,0.009,0.0091,0.0079,0.0079,0.01,0.0102,0.0104,0.0132,0.0112,0.0113,0.0113,0.0148,0.0148,0.0149,0,0,0,0,0,0,0.0054,0.0055,0.0068,0.0064,0.0066,0.0071,0.0074,0.0076,0.0083,0.0089,0.0091,0.0085,0.01,0.0103,0.0124,0.0132,0.0113,0.0114,0.0148,0.0148,0.0149,0.0179,0,0,0,0,0,0,0.0053,0.0055,0.0057,0.0064,0.0066,0.0083,0.0074,0.0076,0.0082,0.0082,0.0095,0.0096,0.01,0.0122,0.0125,0.0133,0.0115,0.0147,0.0148,0.0148,0.0177,0.018,0.0182,0,0,0,0,0,0.0053,0.0057,0.0057,0.0058,0.0068,0.0083,0.0086,0.0089,0.0082,0.0093,0.0101,0.0096,0.0127,0.0124,0.0127,0.0136,0.0147,0.0148,0.0148,0.0176,0.018,0.0182,0,0,0,0,0,0,0.0054,0.0058,0.0058,0.0064,0.0076,0.0084,0.0091,0.0091,0.0106,0.0105,0.0108,0.0111,0.0128,0.0128,0.0125,0.0146,0.0133,0.0134,0.0153,0.0156,0.0159,0.0158,0.0116,0,0,0,0,0,0.0054,0.006,0.0067,0.0074,0.0078,0.0084,0.009,0.0095,0.0105,0.0111,0.012,0.0126,0.0133,0.0142,0.0149,0.0168,0.0153,0.0172,0.0175,0.0177,0.0177,0.0169,0.0171,0.0151,0.0151,0.0151,0,0,0.0055,0.0059,0.0061,0.0074,0.0081,0.0104,0.0088,0.01,0.0124,0.0111,0.0144,0.0137,0.0139,0.0159,0.0166,0.0162,0.0173,0.0178,0.018,0.0179,0.017,0.0172,0.0174,0.0151,0.0151,0.0151,0,0,0.0067,0.0064,0.0077,0.0093,0.0107,0.0115,0.0119,0.0133,0.0142,0.0172,0.016,0.0155,0.0185,0.0177,0.0178,0.0197,0.0184,0.0202,0.0221,0.0213,0.0215,0.0216,0.0191,0.019,0.0207,0.0207,0.0207,0,0.0069,0.0091,0.0084,0.0109,0.013,0.0122,0.0155,0.0164,0.0185,0.0192,0.0189,0.0193,0.0191,0.0194,0.0202,0.0202,0.0196,0.0211,0.0217,0.0218,0.0219,0.0193,0.0191,0.0209,0.0208,0.0208,0.0208,0,0.0097,0.0121,0.0132,0.0164,0.0183,0.0208,0.0223,0.0237,0.0243,0.0248,0.0252,0.0237,0.0235,0.023,0.0229,0.0228,0.022,0.0219,0.021,0.0223,0.0194,0.0192,0.0211,0.021,0.021,0.0209,0,0,0.0092,0.0143,0.0149,0.0188,0.0219,0.0244,0.0273,0.03,0.0316,0.0313,0.0323,0.0313,0.0281,0.0279,0.0255,0.0247,0.024,0.0244,0.0243,0.022,0.0218,0.0217,0.0214,0.025,0.025,0.025,0.0193,0,0.0124,0.0187,0.0202,0.0274,0.0315,0.0326,0.0358,0.0376,0.0379,0.0383,0.0339,0.0344,0.0307,0.0304,0.0282,0.0257,0.0237,0.0255,0.0208,0.0206,0.0205,0.0213,0.025,0.0191,0.0191,0.019,0.019,0,0.0151,0.0198,0.0272,0.0349,0.0365,0.0405,0.0452,0.048,0.0469,0.0466,0.0433,0.0399,0.0364,0.0338,0.0278,0.0298,0.026,0.0232,0.0229,0.0217,0.0202,0.0178,0.0186,0.0186,0.0186,0.0187,0.0187,0,0.0168,0.025,0.0317,0.0345,0.042,0.0456,0.0491,0.0505,0.0536,0.0513,0.0518,0.0455,0.0433,0.0378,0.0302,0.0305,0.0236,0.0231,0.0181,0.018,0.0184,0.0183,0.0187,0.0187,0.0187,0.0188,0.0188,0,0.0202,0.0257,0.0336,0.0379,0.0461,0.0498,0.0562,0.0577,0.0597,0.0624,0.0559,0.0542,0.045,0.0389,0.0318,0.0238,0.0243,0.0182,0.017,0.0196,0.0197,0.0181,0.0181,0.0185,0.0186,0.0186,0.0187,0,0.021,0.0258,0.0345,0.044,0.0474,0.0534,0.0626,0.0664,0.0676,0.0702,0.0703,0.0626,0.0551,0.0445,0.0346,0.0269,0.019,0.0157,0.0179,0.0169,0.0132,0.0134,0.0105,0.0105,0.0104,0.0104,0.0104,0,0.0222,0.0269,0.0387,0.0447,0.0497,0.0587,0.0643,0.0695,0.0729,0.0745,0.0748,0.0689,0.0621,0.0463,0.0351,0.0209,0.0186,0.0129,0.0138,0.0135,0.0126,0.0129,0.0131,0.0103,0.0103,0.0103,0.0103,0,0.0251,0.0288,0.036,0.0473,0.0556,0.0643,0.0722,0.0758,0.0804,0.0822,0.0793,0.0708,0.0609,0.0468,0.0357,0.0251,0.0161,0.0125,0.0125,0.0133,0.0133,0.0124,0.0127,0.0102,0.0102,0.0102,0.0102,0,0.0268,0.0311,0.0397,0.0502,0.0592,0.0667,0.0718,0.0767,0.0809,0.0833,0.0814,0.0713,0.0656,0.0489,0.0382,0.0285,0.0261,0.0214,0.0209,0.0209,0.0255,0.027,0.0273,0,0,0,0,0,0.029,0.0337,0.0425,0.0532,0.0616,0.0673,0.0753,0.0793,0.0835,0.0828,0.0834,0.0746,0.0594,0.0505,0.0413,0.0367,0.0234,0.025,0.0174,0.0095,0.0097,0.0133,0,0,0,0,0,0,0.0303,0.0375,0.0416,0.0526,0.0605,0.0695,0.0747,0.0788,0.0778,0.0806,0.0721,0.0712,0.0555,0.0659,0.0409,0.0379,0.0312,0.0189,0.0186,0.0094,0.0096,0.0097,0.0135,0,0,0,0,0]}]]